RH
20 22 22 23 24 25 29 37 52 67 60 43 48 42 41 47 50 54 57 55 81 85 85 82 85 84 84 86 92 96 99 98 98 99 98 99 98 97
24 24 25 26 25 26 28 31 39 52 62 52 57 63 73 72 61 77 68 74 82 88 86 87 84 88 89 94 97 98 99 99 100 100 100 99 99 99
26 26 28 29 26 26 30 32 43 58 67 65 71 82 83 77 75 74 75 88 82 82 83 86 86 88 89 94 96 97 98 99 100 99 100 99 99 98
28 30 29 26 26 30 36 50 62 66 73 85 87 81 83 69 72 80 78 71 74 78 84 87 91 92 95 95 96 95 94 93 95 97 99 98 99 100
30 29 27 30 31 41 52 58 62 66 78 86 85 78 77 74 93 87 73 83 80 79 86 86 93 95 96 96 93 93 95 95 97 97 96 99 100 100
23 25 32 40 52 60 65 76 88 87 89 86 92 99 100 98 94 89 88 84 72 78 77 64 94 62 81 78 86 89 97 100 100 100 100 100 100 100
17 20 32 46 53 75 82 87 91 91 91 98 100 100 100 100 97 91 88 81 76 90 99 63 77 66 60 66 66 62 91 100 100 100 100 100 100 100
15 20 35 45 54 77 86 89 88 91 90 91 96 100 100 92 95 93 79 99 100 96 98 74 75 72 71 74 67 95 100 100 100 100 100 99 100 100
15 32 45 58 66 78 84 87 90 91 92 95 96 92 95 95 94 91 95 99 95 84 95 97 70 79 74 70 63 68 79 66 96 100 100 100 100 100
18 38 65 72 79 86 86 95 91 82 86 97 98 96 96 93 97 98 98 98 83 79 97 100 86 80 76 70 63 60 63 84 99 98 100 100 99 100
23 42 58 74 86 88 92 85 90 90 83 79 97 100 100 100 100 99 94 98 94 96 82 100 88 84 79 67 63 67 71 68 73 78 96 100 100 100
39 44 65 91 93 92 92 97 97 88 85 93 86 76 73 80 82 90 100 100 98 96 79 98 90 95 99 84 74 67 64 69 73 78 83 83 83 100
84 79 84 94 94 93 93 95 93 96 96 91 81 78 77 76 82 87 97 100 100 100 76 100 96 95 100 98 75 68 71 70 77 76 78 80 90 98
85 90 91 97 96 95 94 92 97 98 90 86 89 82 84 84 85 86 84 86 89 97 86 95 96 100 99 97 94 79 73 73 84 83 88 94 90 99
80 96 99 93 71 77 73 95 97 85 89 94 92 87 87 86 88 87 81 84 86 82 85 92 100 98 98 98 99 90 95 80 78 91 90 96 100 100
86 90 66 48 61 72 65 72 82 88 95 97 95 89 89 91 88 90 94 93 98 82 78 91 100 100 95 97 99 95 83 100 86 91 98 100 100 100
99 70 49 52 56 60 72 83 86 88 90 92 94 96 94 94 92 92 95 100 100 100 88 74 91 100 97 97 98 85 91 88 89 95 100 100 100 100
76 57 57 62 67 73 86 87 87 91 94 97 97 96 98 97 97 94 96 96 99 97 100 95 95 89 87 92 95 95 92 91 87 95 100 100 100 95
54 53 62 66 71 84 94 96 93 91 96 96 95 95 97 97 99 93 95 97 95 94 92 94 93 97 97 96 87 98 97 92 94 98 100 100 100 86
55 63 66 70 79 94 96 96 93 92 94 92 94 97 98 98 94 96 97 100 96 94 96 91 100 98 98 98 97 74 87 99 99 96 97 99 90 90
63 63 70 75 90 95 96 96 96 95 96 97 96 96 96 97 96 98 99 98 99 97 98 98 100 100 99 97 100 93 81 85 96 98 97 97 97 100
70 71 72 87 94 95 96 96 94 95 96 97 96 96 96 96 96 96 98 98 97 98 99 98 100 100 94 100 100 97 95 83 80 81 88 98 99 99
76 75 84 92 93 95 98 96 96 95 98 97 97 96 96 96 97 97 98 98 98 97 100 98 100 95 90 97 100 97 96 93 93 86 71 82 100 100
Wind_Speed
11 13 14 15 16 18 19 20 22 25 34 34 28 26 35 37 37 40 37 34 32 33 33 35 34 35 36 35 35 34 34 33 33 32 33 33 34 34
13 14 16 16 18 19 20 21 22 26 34 36 38 35 33 36 39 32 35 36 34 34 35 32 37 31 33 34 35 36 35 35 34 34 34 34 35 34
14 16 17 18 20 21 23 24 24 24 32 40 37 32 33 39 36 36 37 36 37 38 34 30 31 35 34 35 36 36 37 36 35 35 34 34 34 34
15 17 19 20 22 23 24 23 25 27 30 36 35 38 36 37 36 35 38 41 30 33 29 36 34 34 34 33 34 35 35 35 35 36 36 36 36 36
16 18 21 23 25 25 25 26 29 28 28 33 40 39 38 37 35 40 38 35 35 39 35 36 34 33 34 31 32 34 36 35 34 35 35 35 34 35
17 20 22 23 24 26 28 26 27 29 31 35 40 40 34 36 39 38 38 39 45 43 39 36 34 36 34 35 34 31 31 31 30 31 33 34 34 35
18 20 22 23 23 21 21 23 25 28 31 35 37 37 35 36 33 35 41 45 46 42 34 41 42 41 38 39 34 32 30 31 32 33 33 34 34 34
20 21 22 23 23 20 20 20 23 26 32 36 39 38 38 35 35 39 43 45 41 39 38 50 42 43 43 40 37 34 33 31 34 35 33 33 33 34
21 21 23 23 24 24 24 24 25 28 29 33 36 37 39 37 40 41 40 38 46 47 45 44 44 49 44 42 40 38 30 24 27 28 29 29 31 33
20 20 22 24 24 23 24 27 31 36 35 32 33 33 35 37 35 36 36 39 44 44 38 40 49 48 47 45 41 29 29 27 27 29 30 29 30 31
20 21 23 21 21 21 25 32 36 38 39 33 28 29 29 30 27 30 34 37 42 43 43 38 42 48 48 45 38 35 36 31 29 27 27 28 28 32
22 25 24 20 23 22 28 33 37 39 32 32 34 32 27 29 27 26 28 33 39 44 38 36 42 41 33 39 42 40 37 33 31 29 27 24 24 29
27 28 26 24 23 27 28 30 32 27 30 32 31 30 29 28 30 31 29 30 36 39 37 31 40 39 33 43 46 44 40 38 36 30 28 25 29 29
27 27 27 27 28 27 24 24 23 25 28 28 29 31 32 33 33 32 30 31 30 34 35 31 35 35 37 43 47 46 41 38 36 34 33 34 35 33
24 25 28 28 26 22 23 21 22 24 25 27 30 31 31 32 33 33 30 31 32 31 32 29 30 30 32 38 44 46 44 39 33 36 36 38 39 37
27 30 29 25 21 23 24 22 22 23 25 27 29 31 33 33 33 33 35 35 38 37 33 31 30 29 33 36 38 42 37 37 41 39 39 41 39 36
27 27 25 24 25 25 24 24 24 26 28 27 30 33 34 34 34 33 34 37 36 38 39 34 32 33 33 33 35 34 33 40 39 41 38 40 40 38
23 25 25 24 25 26 26 27 28 29 29 31 32 33 34 34 36 34 36 35 36 37 36 36 38 38 38 34 24 25 36 39 40 39 39 35 41 38
22 22 22 24 25 25 26 28 31 30 32 32 31 32 34 35 35 37 36 35 36 35 36 35 32 33 34 36 41 27 34 37 39 42 36 35 37 36
21 22 23 23 24 25 26 29 30 32 32 30 32 34 34 35 36 36 35 36 34 35 36 34 34 33 33 36 43 42 32 33 36 40 40 35 32 31
22 22 22 23 23 24 27 29 31 33 31 32 35 34 34 36 36 34 34 32 32 33 35 36 35 32 32 31 33 38 37 31 29 32 30 31 33 34
22 23 22 22 22 25 27 29 32 31 30 34 35 35 36 36 35 33 32 33 32 31 32 35 35 34 31 29 33 36 39 36 29 24 21 20 27 26
23 23 22 21 23 25 27 30 31 29 31 33 34 34 35 35 31 30 30 29 29 31 32 34 35 31 31 31 31 34 34 33 34 32 26 17 18 19
Wind_Direction
308 309 309 308 305 303 302 300 300 299 305 310 312 301 304 308 310 309 307 312 305 303 301 300 300 298 295 294 293 293 290 289 286 284 282 280 278 275
309 308 305 304 304 302 301 302 298 294 291 298 305 308 308 307 313 313 315 310 305 303 303 299 300 301 298 296 295 293 292 291 288 286 283 281 279 277
306 306 306 306 306 305 305 302 300 297 292 298 304 308 308 310 313 311 311 307 303 304 302 303 300 299 298 297 296 294 293 291 289 287 286 283 280 277
307 306 306 307 306 304 304 302 295 295 298 301 304 306 310 315 314 314 315 312 308 309 303 300 301 299 300 298 296 295 294 292 289 287 287 283 281 278
310 309 309 308 308 307 304 299 300 303 306 303 308 313 315 318 318 313 315 312 303 306 305 303 303 303 304 302 299 293 289 288 287 285 284 282 280 277
310 307 307 306 305 304 304 309 313 314 313 311 311 312 312 313 314 315 312 308 313 313 314 314 309 315 309 309 308 303 296 293 290 288 286 284 281 279
311 308 305 300 297 301 303 302 308 309 310 311 309 307 309 311 314 310 305 311 313 318 310 317 317 317 319 322 320 316 306 299 292 289 287 285 282 280
316 312 308 307 309 302 300 300 302 304 305 307 307 307 310 308 307 308 312 313 306 311 313 315 318 317 321 320 318 308 302 300 295 291 289 286 283 280
320 312 310 311 313 312 309 306 302 305 302 302 302 302 304 305 304 309 312 308 304 309 311 309 319 314 319 317 319 321 309 308 300 296 294 290 286 283
317 313 309 307 308 311 310 303 305 304 308 307 301 300 298 304 306 308 304 300 301 307 312 301 313 314 318 316 319 320 327 321 305 302 295 293 290 287
319 313 309 313 310 312 307 308 308 307 307 308 303 301 302 301 302 303 299 303 304 306 313 310 315 315 315 317 325 326 324 322 323 323 308 297 295 291
326 327 327 315 315 313 311 309 307 305 315 316 311 312 314 315 314 311 309 305 304 307 318 310 314 317 315 315 316 319 324 329 328 326 322 312 308 303
323 322 321 319 318 312 308 302 303 314 308 306 310 317 321 322 323 322 315 306 303 299 316 309 307 311 303 306 312 318 324 327 326 326 324 318 317 309
316 316 320 320 312 311 309 311 314 308 305 313 317 321 325 325 323 321 318 313 311 305 316 318 307 309 308 304 304 316 321 323 324 324 324 322 319 314
316 318 315 318 319 319 319 316 315 316 319 317 319 321 322 323 322 323 322 323 319 319 324 323 315 314 308 304 304 311 313 322 324 322 324 319 312 312
328 320 320 321 324 319 321 325 325 325 323 319 321 324 326 326 324 327 326 328 326 325 328 327 324 318 312 311 309 307 315 302 322 324 320 311 310 314
314 318 327 330 328 330 331 332 333 333 333 330 328 327 327 328 329 330 329 329 322 326 327 329 331 327 319 317 310 311 313 314 319 317 317 316 312 312
323 325 328 330 332 333 333 334 336 337 337 333 330 330 329 329 329 331 330 329 327 327 326 331 333 330 325 318 311 304 308 313 318 318 318 305 305 316
325 328 330 333 332 332 332 334 336 338 336 334 333 332 332 331 330 329 332 331 329 328 328 330 330 328 315 311 320 316 310 319 321 317 310 307 304 316
335 333 333 334 333 333 334 335 337 337 336 335 334 335 333 332 331 332 333 330 329 327 325 331 332 328 316 313 315 323 330 315 314 316 317 316 314 319
336 335 335 335 336 335 336 336 336 337 337 336 340 339 338 338 336 336 334 334 331 331 330 331 332 328 323 326 316 320 329 334 329 322 320 320 318 314
336 335 337 339 339 338 337 337 337 339 341 342 341 341 344 343 340 339 337 334 333 333 331 329 331 335 335 332 324 324 330 337 340 338 335 326 320 300
336 335 340 343 340 339 339 338 339 342 343 341 343 346 346 344 344 341 339 337 336 334 330 332 335 341 340 340 331 329 335 341 345 345 349 343 326 313